Theta_e
332 329 324 322 309 310 307 313 321 317 318 326 332 331 332 335 327 317 346 347 347 348 356 360 365 366 365 362 362 362 361 361 362 363 363 363 363 363 363 363 363 363 360 360 359 358 358 358 356
324 321 323 315 305 303 307 316 316 319 325 329 330 333 333 331 341 341 341 350 345 345 352 358 365 365 365 363 362 361 361 362 362 362 363 362 362 362 362 362 363 363 360 360 359 359 358 358 356
331 321 311 306 304 305 306 316 319 322 325 327 329 335 334 330 342 343 347 351 346 343 353 358 364 365 365 364 363 362 362 362 362 362 362 362 361 361 362 363 363 363 361 360 359 358 359 358 356
321 315 313 303 303 309 311 318 319 320 322 327 329 323 333 338 338 345 347 356 354 348 351 360 362 364 365 364 363 363 362 362 362 362 362 361 361 360 360 362 363 363 362 361 361 361 360 360 359
316 310 301 302 304 310 317 319 321 319 322 326 324 320 323 332 336 339 348 352 340 352 353 357 362 362 364 364 364 363 363 362 362 361 361 361 360 359 359 360 360 361 362 362 362 361 361 360 360
307 306 298 296 306 312 314 321 320 319 325 326 321 322 325 333 333 340 348 348 332 351 352 352 360 361 362 363 363 363 362 362 361 361 361 360 359 358 358 359 359 359 360 360 361 360 359 359 358
304 299 298 299 302 309 315 318 315 313 315 323 324 317 324 326 332 333 345 349 348 351 351 351 354 356 360 361 361 362 362 361 361 359 359 358 359 357 357 358 358 358 359 359 359 359 359 359 358
306 301 296 299 305 302 312 317 318 315 316 331 327 315 313 324 330 332 342 340 341 340 343 346 349 352 353 354 361 360 360 360 359 359 359 358 358 358 359 357 358 359 359 359 359 359 359 359 359
309 296 294 301 303 305 310 309 314 320 318 325 325 321 322 328 331 342 337 336 336 337 339 335 339 344 343 348 354 358 358 359 358 358 358 355 350 348 352 355 356 357 357 359 359 359 359 359 358
302 296 299 305 306 305 306 308 311 311 312 324 325 328 328 329 333 337 336 335 333 335 329 330 333 338 347 350 350 350 351 351 351 350 348 348 345 343 346 350 355 356 357 358 357 358 356 354 333
304 298 303 304 309 306 306 307 309 307 305 310 323 328 332 332 328 330 333 334 331 335 337 331 334 341 347 345 348 347 345 346 346 345 346 347 348 345 349 349 350 349 354 350 354 346 343 337 337
298 304 306 305 306 305 305 309 307 307 306 315 316 318 320 326 324 328 327 329 332 336 337 330 333 341 342 343 339 343 348 349 348 348 351 346 347 338 336 336 345 347 347 346 344 337 332 337 339
299 303 306 307 305 304 310 307 306 306 311 314 316 321 322 322 322 329 328 331 334 332 332 330 328 328 343 335 342 343 345 340 346 341 332 331 334 330 330 331 330 331 330 346 341 334 336 336 335
305 305 303 305 303 303 303 307 309 308 312 314 315 320 322 322 323 322 332 334 335 330 332 334 328 335 343 342 341 339 339 332 332 330 330 330 333 328 327 328 329 325 327 328 334 338 338 336 333
305 299 303 302 304 302 305 303 305 310 313 313 315 320 321 322 323 322 326 332 339 339 338 336 336 336 333 333 336 335 337 331 328 327 327 327 325 323 325 326 324 322 324 326 328 327 328 330 337
300 298 294 301 305 304 304 298 307 310 311 311 316 319 320 321 322 324 327 329 331 333 334 333 335 333 331 330 331 332 329 330 327 327 324 326 325 322 323 322 322 322 323 323 324 323 321 322 322
298 293 297 300 306 305 302 300 308 311 312 311 313 317 319 319 321 323 327 327 329 329 330 330 330 329 329 330 329 328 326 326 327 324 325 322 325 325 325 323 324 325 325 324 323 322 322 321 321
295 297 300 302 306 304 300 303 307 310 310 310 312 314 316 318 319 323 325 328 329 329 329 330 330 330 331 331 329 328 327 326 325 323 323 323 325 327 323 327 326 325 323 325 322 322 323 321 320
302 299 298 303 308 303 300 303 306 308 308 308 310 311 313 316 319 321 324 326 326 326 326 327 328 326 328 325 324 325 325 326 327 330 325 324 326 328 325 326 326 325 324 325 325 323 320 318 320
302 299 299 303 307 302 300 299 305 307 306 308 309 310 312 312 314 317 317 320 324 325 325 323 322 321 326 323 323 323 324 327 328 327 328 326 327 326 328 325 325 326 325 322 321 323 320 319 317
300 297 298 298 302 301 299 296 300 307 308 309 309 309 310 309 310 311 314 313 316 319 320 319 319 318 322 322 320 319 317 319 320 321 326 326 328 327 325 326 324 324 325 325 323 324 321 316 317
297 302 301 299 295 290 298 286 295 304 304 306 306 307 308 309 310 310 310 310 311 313 317 319 319 317 320 320 317 315 314 313 316 317 319 321 324 325 327 327 326 328 327 325 324 325 321 319 315
300 303 300 299 293 290 293 288 292 303 301 303 305 307 308 308 308 307 307 309 309 312 312 316 318 315 316 315 315 314 311 313 314 317 317 316 317 318 321 320 318 320 324 325 323 324 323 319 317
307 300 299 296 292 286 293 293 293 298 301 303 306 308 309 307 306 307 308 309 308 309 310 309 309 315 315 314 315 313 312 313 312 311 311 312 314 317 317 319 316 315 316 318 320 321 322 320 318
300 293 285 286 285 286 295 292 295 301 304 304 304 304 305 304 304 305 305 305 305 307 309 310 309 309 311 313 314 315 313 312 312 311 310 311 310 312 315 316 314 314 314 315 317 317 318 318 318
296 293 285 281 282 285 294 291 295 303 305 306 305 304 305 304 305 305 306 306 307 307 306 306 305 305 305 305 309 313 313 312 311 310 310 310 310 308 309 311 312 312 313 312 315 315 315 317 317
296 292 295 289 290 286 290 296 301 303 303 303 303 303 302 304 304 304 305 305 305 303 304 305 305 306 307 308 307 307 309 309 311 310 309 308 308 310 308 310 311 312 313 313 310 311 312 314 315
296 300 288 291 282 281 288 290 291 297 299 302 301 300 301 302 302 303 304 304 305 305 304 306 306 305 305 306 306 306 307 308 308 308 307 307 308 309 309 308 308 308 309 308 308 309 309 311 312
297 294 292 292 290 283 282 287 298 297 298 298 299 300 299 298 299 299 300 302 302 304 304 304 305 304 304 304 304 304 304 306 306 305 305 306 305 306 307 307 307 307 307 307 307 306 308 309 309
297 293 293 287 287 290 288 288 302 298 301 301 300 300 298 298 299 300 300 300 303 302 303 303 303 303 303 303 303 303 303 303 302 303 304 306 305 306 307 308 306 306 306 306 308 309 309 308 308
Wind_Speed
3 7 3 2 6 9 5 4 8 6 4 14 15 16 17 15 7 4 3 15 14 12 9 10 13 14 14 13 14 12 11 11 10 9 10 8 8 9 9 8 8 9 8 7 8 8 8 8 6
3 4 2 3 5 5 3 6 11 4 5 4 11 20 18 16 12 4 7 12 14 11 9 8 12 13 14 14 14 13 11 12 11 9 9 9 6 7 7 7 7 7 8 7 6 5 6 5 5
3 4 2 4 3 6 6 8 8 7 11 11 16 20 11 7 7 3 9 15 13 11 10 10 13 12 12 12 13 14 12 11 10 10 8 9 8 5 5 6 5 6 6 6 4 3 4 3 2
3 3 5 4 0 5 7 15 11 3 5 10 8 9 7 6 4 1 9 20 14 7 5 12 15 13 12 12 11 12 12 12 11 10 9 8 8 7 5 4 5 4 4 5 4 3 2 2 2
2 1 3 4 6 4 17 11 9 6 8 18 24 8 5 2 1 11 10 11 13 8 8 6 15 14 12 12 11 10 10 10 10 10 10 8 8 8 7 6 5 5 4 4 4 3 3 3 3
4 3 4 5 7 2 7 15 11 7 15 16 6 7 6 8 5 6 11 9 9 10 8 5 8 10 11 12 12 11 11 10 10 10 10 10 10 9 9 8 7 7 7 6 6 5 5 5 5
5 1 8 11 14 8 7 13 7 8 13 7 17 7 6 7 9 7 7 13 10 12 10 7 6 5 6 8 10 9 8 8 8 8 7 7 6 7 8 8 9 9 10 9 8 7 5 4 6
2 2 8 8 9 3 10 6 10 9 5 15 12 5 4 8 12 3 3 19 14 15 16 14 10 1 2 2 3 5 6 6 5 4 5 6 6 6 8 9 9 10 11 10 9 8 5 4 5
6 3 6 7 11 5 10 8 9 4 14 7 5 10 7 11 4 18 14 18 12 12 10 9 7 8 2 4 4 3 4 5 7 6 6 5 4 6 8 9 13 14 12 10 8 2 3 3 3
2 3 9 1 8 7 10 16 13 13 14 13 9 6 10 9 14 17 19 12 15 5 4 11 10 8 6 4 4 6 7 5 5 5 6 5 5 5 9 11 16 16 10 11 3 3 4 3 4
9 5 4 9 10 10 10 15 9 11 9 7 12 9 11 6 16 14 14 8 10 8 9 7 10 4 14 13 6 4 2 3 3 5 4 4 4 4 5 4 5 4 7 2 6 7 3 6 3
3 3 8 7 7 9 7 9 9 12 5 8 9 10 26 17 13 7 7 5 7 3 2 7 3 10 11 14 4 2 3 4 3 5 6 2 1 3 3 3 2 2 1 4 4 2 2 3 4
4 1 6 8 9 7 12 9 9 9 8 10 10 21 22 20 15 13 7 6 7 3 5 3 9 7 7 4 4 4 2 3 3 3 3 4 3 2 3 2 3 4 1 5 5 4 2 3 4
4 6 4 6 6 3 5 7 11 4 6 10 12 20 21 22 18 16 7 4 7 4 2 6 6 7 4 3 3 3 2 3 3 3 4 5 3 2 3 4 5 4 3 3 3 4 4 4 3
5 4 7 3 8 5 4 3 7 7 8 10 16 19 19 19 19 17 15 17 9 7 5 5 7 3 6 6 4 3 4 2 3 4 4 4 2 2 3 4 3 3 4 5 5 4 4 2 4
4 4 4 8 7 3 10 2 6 7 9 9 15 18 17 17 15 14 14 11 10 10 9 9 9 9 8 7 6 5 4 5 1 2 2 3 2 1 4 3 3 3 4 3 4 4 5 4 4
5 7 2 4 9 7 6 7 5 8 9 9 11 13 15 13 12 10 11 9 8 8 7 8 9 9 9 8 5 5 7 4 4 2 2 0 4 3 4 2 2 4 4 3 4 4 2 2 5
6 2 6 8 6 8 7 6 7 8 10 10 11 12 13 12 9 9 9 9 8 7 8 8 6 7 8 7 7 7 6 6 5 4 3 2 2 2 4 4 4 4 4 2 3 3 2 1 3
8 8 9 2 8 6 3 10 9 8 9 10 10 10 10 11 8 8 7 7 7 7 7 7 7 6 5 5 6 8 7 5 6 7 7 6 6 4 2 3 3 3 4 3 2 1 1 3 3
7 7 9 9 8 5 3 1 8 9 5 9 12 11 11 8 7 7 7 6 6 7 6 7 7 6 4 3 2 2 3 3 4 6 6 8 9 8 7 6 4 4 2 4 5 3 1 1 1
7 9 10 8 9 7 6 4 5 3 9 12 9 9 9 9 8 7 7 6 6 7 7 6 6 5 4 5 3 4 2 2 3 4 3 5 6 7 3 6 9 7 4 4 4 3 2 3 2
6 9 8 10 9 4 5 6 9 11 8 8 9 8 9 8 6 5 5 5 5 6 8 7 5 4 4 6 3 2 1 2 2 2 5 3 4 6 5 5 7 10 9 5 4 4 2 1 2
3 6 6 9 7 4 9 2 8 9 7 9 8 9 9 8 7 4 3 4 0 9 8 6 6 4 4 5 5 4 4 3 3 3 5 7 6 4 6 6 7 5 4 4 5 5 4 1 1
2 5 8 5 2 2 12 7 3 3 2 5 7 7 8 6 3 1 5 7 5 5 4 2 2 1 3 3 5 6 7 6 3 4 4 5 4 5 7 4 4 3 4 5 4 4 5 3 4
10 7 5 7 4 6 12 7 2 6 11 10 8 7 5 3 7 6 9 7 5 6 6 5 7 6 6 6 6 6 7 8 7 7 5 5 3 2 4 6 6 5 5 6 6 6 6 4 3
6 3 6 2 3 6 8 4 2 6 7 6 3 5 6 6 7 7 8 8 6 4 2 3 6 6 7 8 8 7 7 5 5 6 4 3 4 2 2 1 5 5 5 4 5 4 4 5 5
6 5 3 2 4 2 2 4 2 6 4 5 6 5 7 6 7 6 7 6 4 5 4 7 9 8 7 6 5 6 6 7 7 7 3 2 3 3 5 5 4 4 6 6 4 4 5 5 5
1 1 6 4 0 3 7 4 3 4 6 5 6 7 6 5 6 6 7 9 6 11 8 8 6 5 5 3 3 3 5 6 5 3 5 6 6 5 6 5 4 5 5 6 6 8 7 6 4
1 2 1 3 5 4 1 6 4 2 2 4 7 7 7 6 5 5 5 4 8 6 7 7 7 6 6 7 6 6 6 6 6 5 6 6 4 5 6 6 6 6 6 6 5 6 6 8 7
3 2 4 6 6 1 5 7 2 1 8 9 6 6 5 6 7 7 7 6 6 7 6 5 6 6 6 6 7 7 6 6 6 8 7 7 7 6 7 6 6 6 6 6 7 8 8 6 6
Wind_Direction
242 229 197 326 44 81 67 0 294 267 275 344 63 72 71 48 54 135 141 126 126 126 129 117 117 122 126 128 131 128 126 120 122 122 115 107 109 110 114 113 114 116 111 110 114 114 110 107 101
302 292 150 285 97 60 270 235 228 228 8 219 283 86 66 68 82 79 96 135 124 132 122 116 118 124 130 135 136 134 133 132 134 135 130 119 116 126 126 126 128 125 124 123 122 119 117 117 115
236 224 60 124 204 153 189 230 254 57 56 2 38 44 26 356 69 92 103 135 112 119 125 129 123 125 126 134 137 138 138 141 144 141 144 137 140 140 138 137 137 142 141 140 138 137 133 131 141
301 24 333 91 199 206 189 162 159 162 39 81 47 20 302 204 342 89 89 101 92 74 85 138 132 130 133 136 139 141 149 152 152 152 155 154 150 159 161 162 161 170 165 164 165 171 183 188 223
222 327 324 337 278 185 93 148 146 126 105 121 98 196 222 216 340 312 115 125 122 130 125 135 135 130 131 136 140 148 153 155 156 159 163 169 170 172 183 186 196 193 200 201 196 202 245 252 257
320 103 330 285 259 255 142 138 135 148 134 132 95 165 260 345 313 293 118 144 131 117 96 92 114 130 140 150 153 158 160 161 166 168 176 178 179 186 191 200 203 213 220 214 216 218 228 268 288
220 27 269 290 280 117 123 151 161 166 133 153 151 128 273 308 250 264 165 149 137 115 135 125 103 130 154 158 151 154 157 167 168 181 183 191 198 201 210 215 217 216 220 219 216 214 229 260 275
256 107 305 303 59 98 141 116 139 129 110 126 141 156 236 248 255 315 147 60 63 55 51 41 4 68 48 24 133 146 155 160 163 189 199 211 219 229 235 237 241 241 234 222 226 224 212 250 306
278 345 289 296 9 153 51 90 35 115 89 117 127 153 196 213 171 66 29 41 46 44 63 62 7 355 232 151 182 171 186 177 179 187 212 229 231 244 242 238 238 236 233 235 232 266 337 329 336
222 108 270 151 50 23 59 73 64 60 68 103 111 137 180 203 116 120 115 93 345 33 86 98 207 7 284 224 175 172 191 199 212 203 208 218 225 234 249 234 234 237 227 226 186 149 205 186 117
252 184 31 25 25 34 90 68 61 69 40 54 145 201 192 33 61 79 93 139 182 126 243 161 82 106 92 320 255 203 198 232 217 217 223 237 236 244 251 252 244 204 230 145 184 165 203 186 169
20 39 84 72 18 23 78 81 59 73 58 80 53 59 67 67 64 100 110 159 71 99 33 40 250 130 134 202 238 328 258 184 204 220 208 189 306 352 26 14 345 182 228 164 185 158 254 188 229
351 119 63 87 72 64 90 99 112 71 63 53 56 60 66 72 59 68 90 42 75 56 60 1 325 49 134 186 256 292 320 315 199 131 134 95 73 68 26 345 45 83 107 157 209 196 181 234 226
348 6 122 119 119 108 101 118 98 88 90 84 69 66 57 56 55 54 89 46 92 123 215 234 305 302 73 137 153 268 310 243 101 91 73 66 71 54 53 11 50 30 47 135 185 201 193 215 243
1 339 303 179 167 150 112 65 109 126 82 81 81 78 68 59 48 50 47 42 51 93 115 108 194 355 34 7 348 287 229 266 138 114 91 95 83 27 53 76 55 16 12 31 44 46 98 153 219
262 307 255 243 133 143 102 96 114 96 103 93 89 85 78 68 61 62 57 56 55 41 34 40 36 23 16 2 358 353 357 20 359 118 155 188 178 77 31 75 63 29 23 34 62 35 16 10 346
303 249 249 104 171 145 125 158 150 105 92 89 89 91 90 81 69 70 77 75 60 55 49 55 41 15 359 345 346 342 332 352 328 89 213 316 145 90 49 49 46 28 21 38 45 30 74 343 325
325 321 350 124 244 150 195 135 153 142 137 127 112 105 103 100 98 92 91 91 82 68 66 70 48 27 20 18 4 0 3 347 331 338 201 172 27 63 61 24 9 3 21 23 21 43 344 308 303
346 348 340 315 210 144 170 159 171 148 140 128 117 111 107 108 119 108 103 108 106 110 103 97 81 36 45 23 13 7 2 345 345 11 335 23 37 35 33 48 29 23 32 348 345 286 336 321 340
19 19 358 334 28 39 75 314 140 163 161 139 124 112 117 119 118 122 117 114 134 124 118 104 115 112 111 92 116 107 349 352 328 343 350 352 357 357 11 357 356 4 350 321 312 293 233 254 333
33 33 2 340 332 357 3 317 260 139 109 96 95 117 118 125 133 133 137 141 151 163 164 165 166 141 125 116 47 3 356 352 3 327 285 317 317 279 326 329 316 307 275 271 262 269 262 248 285
5 15 359 332 359 306 50 284 311 146 116 114 129 139 139 151 131 134 148 175 184 203 177 179 142 156 146 119 105 93 191 271 267 289 296 303 281 313 290 279 252 239 263 269 225 257 232 210 263
249 343 287 280 283 332 293 17 285 115 140 169 168 148 145 126 117 109 278 213 87 24 48 112 172 166 158 163 174 182 210 223 257 305 321 320 314 289 280 258 278 282 282 249 236 261 251 227 204
294 311 322 282 162 342 266 193 329 23 169 100 46 73 92 102 86 210 21 59 91 70 58 41 345 185 253 228 225 220 224 232 234 248 273 277 279 285 293 336 351 358 4 352 315 311 324 294 272
22 44 347 352 21 208 340 37 26 64 58 77 73 73 57 6 11 28 39 33 1 38 35 31 22 350 339 314 290 248 223 230 229 239 227 230 275 328 4 356 349 8 5 354 346 325 305 296 274
286 130 142 273 356 284 319 52 207 106 101 112 98 115 70 74 47 27 7 342 8 71 76 333 295 283 302 312 311 331 311 260 243 235 254 209 176 206 267 315 326 313 310 323 316 301 291 291 281
308 50 189 75 294 10 201 89 56 158 118 61 41 42 64 65 40 12 333 305 205 280 287 359 17 18 18 45 38 16 26 20 0 339 318 268 257 232 251 249 246 287 309 312 285 264 266 275 273
205 264 32 352 246 298 324 3 160 42 9 8 10 63 44 26 5 335 325 4 13 45 55 49 28 7 338 347 347 320 298 296 269 252 268 262 260 249 258 261 260 276 278 274 275 283 274 265 249
162 291 216 138 138 164 257 280 174 133 254 63 49 45 40 19 354 0 35 42 57 58 45 28 15 359 345 334 316 314 320 347 330 305 288 282 282 285 274 260 249 248 258 265 265 258 255 258 252
88 315 117 116 291 2 150 263 10 302 56 70 40 38 11 6 27 17 24 23 51 41 40 23 341 336 325 318 316 318 335 326 316 309 293 280 270 259 254 254 254 252 252 257 256 258 260 244 248